This demonstration page uses our WeatherBlox Daily Observations layout. Learn more.

Left ArrowRight Arrow

Hourly Observations for July 5, 2016

Temp ( °F °C ) Dew Point ( °F °C ) Humidity (%) Winds ( mph kmh ) Pressure ( in mb ) Visibility ( mi km ) Precip ( " mm )
12:59 am 00:59 Partly Cloudy 78 25.6 75 23.9 90 90 SSW 10 17 29.94 1014 7 11 0.00 0.00
1:59 am 01:59 Partly Cloudy 77 25 74 23.3 90 90 SSW 10 17 29.93 1013 7 11 0.00 0.00
2:59 am 02:59 Mostly Cloudy 78 25.6 74 23.3 87 87 SSW 12 19 29.91 1013 8 13 0.00 0.00
3:59 am 03:59 Cloudy 78 25.6 74 23.3 87 87 W 10 17 29.92 1013 8 13 0.00 0.00
4:09 am 04:09 Cloudy 78 25.6 74 23.3 87 87 WSW 10 17 29.91 1013 8 13 0.00 0.00
4:59 am 04:59 Cloudy with Light Rain 78 25.6 74 23.3 87 87 SW 9 15 29.90 1013 8 13 0.00 0.03
5:15 am 05:15 Cloudy 77 25 74 23.3 90 90 SSW 9 15 29.88 1012 7 11 0.00 0.03
5:59 am 05:59 Mostly Cloudy 77 25 74 23.3 90 90 SSW 10 17 29.88 1012 7 11 0.00 0.03
6:59 am 06:59 Mostly Cloudy with Mist and Fog 78 25.6 74 23.3 87 87 SW 12 19 29.89 1012 6 10 0.00 0.00
7:59 am 07:59 Mostly Cloudy 80 26.7 74 23.3 82 82 WSW 9 15 29.91 1013 7 11 0.00 0.00
8:59 am 08:59 Mostly Cloudy 82 27.8 75 23.9 79 79 WSW 12 19 29.91 1013 7 11 0.00 0.00
9:59 am 09:59 Mostly Cloudy 84 28.9 74 23.3 72 72 W 15 24 29.91 1013 8 13 0.00 0.00
10:59 am 10:59 Mostly Cloudy 87 30.6 74 23.3 65 65 W 13 20 29.90 1013 9 14 0.00 0.00
11:59 am 11:59 Mostly Cloudy 88 31.1 74 23.3 63 63 W 15 24 29.90 1013 10 16 0.00 0.00
12:59 pm 12:59 Mostly Cloudy 89 31.7 73 22.8 59 59 W 14 22 29.91 1013 10 16 0.00 0.00
1:59 pm 13:59 Mostly Cloudy 90 32.2 74 23.3 59 59 W 13 20 29.89 1012 10 16 0.00 0.00
2:59 pm 14:59 Mostly Cloudy 91 32.8 73 22.8 56 56 W 13 20 29.89 1012 10 16 0.00 0.00
3:59 pm 15:59 Mostly Cloudy 91 32.8 73 22.8 56 56 W 12 19 29.88 1012 10 16 0.00 0.00
4:59 pm 16:59 Mostly Cloudy 91 32.8 72 22.2 54 54 WNW 13 20 29.87 1012 10 16 0.00 0.00
5:59 pm 17:59 Mostly Cloudy 91 32.8 74 23.3 57 57 W 10 17 29.87 1011 10 16 0.00 0.00
6:59 pm 18:59 Mostly Cloudy 88 31.1 74 23.3 63 63 WNW 6 9 29.86 1011 10 16 0.00 0.00
7:59 pm 19:59 Mostly Cloudy 88 31.1 74 23.3 63 63 W 5 7 29.87 1012 10 16 0.00 0.00
8:59 pm 20:59 Mostly Cloudy 85 29.4 75 23.9 72 72 SW 6 9 29.88 1012 10 16 0.00 0.00
9:59 pm 21:59 Clear 84 28.9 75 23.9 74 74 SW 8 13 29.90 1013 9 14 0.00 0.00
10:59 pm 22:59 Cloudy 81 27.2 74 23.3 79 79 SW 8 13 29.92 1013 9 14 0.00 0.00
11:59 pm 23:59 Cloudy 80 26.7 73 22.8 79 79 Calm 29.92 1013 10 16 0.00 0.00

Powered by AerisWeather